DELTA 1 DEB, 10823

Orbit data source: Space-Track

DELTA 1 DEB, 10823 is space debris in SSO originally from a launch on Thu, 29 Jul 1976 UTC launched from the Air Force Western Test Range (AFWTR). Debris objects in space refer to the collection of defunct objects orbiting the Earth. Examples of debris include non-operational satellites, rocket bodies, and fragments generated from explosions, collisions, or faulty payload assembly.

Loading next visibility...
Identifier
10823, 1976-077BT
Orbit
SSO
Country
Flag of USUS
Related business
Manufacturer
Unknown
Mission
Spacecraft
Bus & Motor
Unknown
Mass
Unknown
Launch date (UTC)
1976-07-29 (50 years ago)
Launch vehicle
Unknown
Launch site
Air Force Western Test Range (AFWTR)
Object type
Payload
Rocket body
Debris
Shape & HBR
Unknown shape, 0.1 m
Radar Cross Section
Medium (>0.1 m² and <1 m²)

Expand to show TLE details & history
Last TLE update: 1 day ago

TLE from 1 day ago
0 DELTA 1 DEB
1 10823U 76077BT  26033.37306902  .00000001  00000-0  32650-3 0  9995
2 10823 101.9771 348.8378 0045399 280.0142 235.2607 12.43783079246528
Epoch: 2026-02-02T08:57Z
TLE epoch observation values (Epoch: 2026-02-02T08:57:13.163Z)
Latitude
24.59363°
Longitude
-92.49163°
Altitude
1,513.734 km
Speed
7.101 km/s
True Right ascension
11h 37m 31s
True Declination
24° 28' 34"
Sunlit
Object was in full shadow at epoch
Visualization orbit readout
Latitude
Unknown
Longitude
Unknown
Altitude
Unknown
Speed
Unknown
Apparent Right ascension
Unknown
Apparent Declination
Unknown
Sunlit
N/A
Visualization observer readout
Local Sidereal Time
11:43:09
Azimuth
Unknown
Elevation
Unknown
Doppler factor
Unknown
Orbital elements
Apogee altitude
1,523.888 km
Perigee altitude
1,452.463 km
Semi-major axis
7,866.312 km
Eccentricity
0.00454
Inclination
101.9771°
RAAN
348.8378°
Arg. of periapsis
280.0142°
True anomaly
234.83458°
Mean anomaly
235.2607°
Eccentric anomaly
235.0475°
Mean motion
3.1109 °/min
Orbital period
115.72 mins
BSTAR
0.0003265
Loading maneuver chart data...
Computing Atmospheric mass density...
Loading historical data...
Loading historical data...
Loading historical data...
Loading historical data...
Loading historical data...
Loading historical data...
Loading historical data...

Documentation

Showing up to 5 results
|